Wetterdaten: Donnerstag, 26.03.2015
Datum Zeit Auen-Temp. Temp gefhlt Luftfeuchte Luftdruck Regen Wind Richtung Richtung Taupunkt Windben
26.03.2015 00:00 6,7 C 6,5 C 76 % 1004,6 hPa 0,0 l/m 3,7 km/h (1 Bft) W-SW 247 2,8 C 6,8 km/h (2 Bft)
26.03.2015 00:05 6,6 C 6,5 C 76 % 1004,6 hPa 0,0 l/m 2,9 km/h (1 Bft) SW 225 2,7 C 1,8 km/h (1 Bft)
26.03.2015 00:10 6,7 C 6,6 C 76 % 1004,6 hPa 0,0 l/m 3,1 km/h (1 Bft) W 270 2,8 C 4,5 km/h (1 Bft)
26.03.2015 00:15 6,8 C 6,6 C 77 % 1004,6 hPa 0,0 l/m 3,7 km/h (1 Bft) W 270 3,1 C 7,7 km/h (2 Bft)
26.03.2015 00:20 6,7 C 6,6 C 77 % 1004,6 hPa 0,0 l/m 3,7 km/h (1 Bft) W 270 3,0 C 4,8 km/h (1 Bft)
26.03.2015 00:25 6,7 C 6,6 C 77 % 1004,8 hPa 0,0 l/m 2,3 km/h (1 Bft) W-SW 247 3,0 C 2,4 km/h (1 Bft)
26.03.2015 00:30 6,6 C 6,6 C 76 % 1004,8 hPa 0,0 l/m 1,8 km/h (1 Bft) SW 225 2,7 C 3,1 km/h (1 Bft)
26.03.2015 00:35 6,6 C 6,6 C 77 % 1004,8 hPa 0,0 l/m 1,9 km/h (1 Bft) W 270 2,9 C 2,7 km/h (1 Bft)
26.03.2015 00:40 6,6 C 6,6 C 77 % 1004,8 hPa 0,0 l/m 1,9 km/h (1 Bft) W 270 2,9 C 2,4 km/h (1 Bft)
26.03.2015 00:45 6,7 C 6,6 C 77 % 1004,9 hPa 0,0 l/m 2,7 km/h (1 Bft) W-SW 247 3,0 C 6,3 km/h (2 Bft)
26.03.2015 00:50 6,6 C 6,6 C 78 % 1004,9 hPa 0,0 l/m 3,2 km/h (1 Bft) W-SW 247 3,0 C 0,0 km/h (0 Bft)
26.03.2015 00:55 6,6 C 6,5 C 78 % 1004,9 hPa 0,0 l/m 3,4 km/h (1 Bft) W 270 3,0 C 3,9 km/h (1 Bft)
26.03.2015 01:00 6,6 C 6,6 C 78 % 1004,9 hPa 0,0 l/m 2,4 km/h (1 Bft) NW 315 3,0 C 2,1 km/h (1 Bft)
26.03.2015 01:05 6,6 C 6,5 C 78 % 1005,1 hPa 0,0 l/m 2,6 km/h (1 Bft) W-SW 247 3,0 C 11,6 km/h (2 Bft)
26.03.2015 01:10 6,6 C 6,5 C 78 % 1005,1 hPa 0,0 l/m 3,5 km/h (1 Bft) S 180 3,0 C 4,8 km/h (1 Bft)
26.03.2015 01:15 6,6 C 6,4 C 79 % 1005,1 hPa 0,0 l/m 4,0 km/h (1 Bft) W-SW 247 3,2 C 2,1 km/h (1 Bft)
26.03.2015 01:20 6,5 C 6,4 C 78 % 1005,1 hPa 0,0 l/m 3,7 km/h (1 Bft) W 270 2,9 C 6,0 km/h (2 Bft)
26.03.2015 01:25 6,5 C 6,4 C 79 % 1005,1 hPa 0,0 l/m 3,7 km/h (1 Bft) W-NW 292 3,1 C 5,3 km/h (1 Bft)
26.03.2015 01:30 6,5 C 6,3 C 79 % 1005,1 hPa 0,0 l/m 4,5 km/h (1 Bft) W-SW 247 3,1 C 3,2 km/h (1 Bft)
26.03.2015 01:35 6,5 C 6,3 C 79 % 1005,1 hPa 0,0 l/m 4,7 km/h (1 Bft) SW 225 3,1 C 10,0 km/h (2 Bft)
26.03.2015 01:40 6,4 C 6,2 C 80 % 1005,1 hPa 0,0 l/m 4,7 km/h (1 Bft) NW 315 3,2 C 6,1 km/h (2 Bft)
26.03.2015 01:45 6,4 C 6,1 C 80 % 1005,4 hPa 0,0 l/m 5,0 km/h (1 Bft) W-SW 247 3,2 C 11,9 km/h (2 Bft)
26.03.2015 01:50 6,3 C 5,9 C 80 % 1005,4 hPa 0,0 l/m 5,8 km/h (2 Bft) W-SW 247 3,1 C 6,9 km/h (2 Bft)
26.03.2015 01:55 6,3 C 5,9 C 80 % 1005,4 hPa 0,0 l/m 5,8 km/h (2 Bft) W 270 3,1 C 4,2 km/h (1 Bft)
26.03.2015 02:00 6,2 C 5,8 C 80 % 1005,4 hPa 0,0 l/m 6,0 km/h (2 Bft) W 270 3,0 C 7,6 km/h (2 Bft)
26.03.2015 02:05 6,1 C 5,7 C 81 % 1005,3 hPa 0,0 l/m 6,0 km/h (2 Bft) W 270 3,1 C 8,2 km/h (2 Bft)
26.03.2015 02:10 6,0 C 5,7 C 81 % 1005,3 hPa 0,0 l/m 5,6 km/h (1 Bft) W-SW 247 3,0 C 12,4 km/h (3 Bft)
26.03.2015 02:15 6,0 C 5,6 C 81 % 1005,3 hPa 0,0 l/m 5,3 km/h (1 Bft) NW 315 3,0 C 3,5 km/h (1 Bft)
26.03.2015 02:20 5,9 C 5,6 C 82 % 1005,3 hPa 0,0 l/m 4,7 km/h (1 Bft) W-NW 292 3,1 C 6,0 km/h (2 Bft)
26.03.2015 02:25 5,8 C 5,5 C 82 % 1005,6 hPa 0,0 l/m 5,3 km/h (1 Bft) NW 315 3,0 C 15,3 km/h (3 Bft)
26.03.2015 02:30 5,8 C 5,4 C 82 % 1005,6 hPa 0,0 l/m 5,6 km/h (1 Bft) W 270 3,0 C 4,5 km/h (1 Bft)
26.03.2015 02:35 5,7 C 5,2 C 82 % 1005,6 hPa 0,0 l/m 6,3 km/h (2 Bft) SW 225 2,9 C 5,8 km/h (2 Bft)
26.03.2015 02:40 5,6 C 5,1 C 83 % 1005,6 hPa 0,0 l/m 6,1 km/h (2 Bft) NW 315 2,9 C 7,1 km/h (2 Bft)
26.03.2015 02:45 5,5 C 5,1 C 83 % 1005,6 hPa 0,0 l/m 5,6 km/h (1 Bft) W-SW 247 2,8 C 8,5 km/h (2 Bft)
26.03.2015 02:50 5,4 C 5,1 C 83 % 1005,6 hPa 0,0 l/m 4,8 km/h (1 Bft) W-SW 247 2,7 C 7,2 km/h (2 Bft)
26.03.2015 02:55 5,3 C 4,8 C 83 % 1005,6 hPa 0,0 l/m 5,6 km/h (1 Bft) S 180 2,7 C 4,3 km/h (1 Bft)
26.03.2015 03:00 5,2 C 4,7 C 83 % 1005,6 hPa 0,0 l/m 5,6 km/h (1 Bft) SW 225 2,6 C 3,7 km/h (1 Bft)
26.03.2015 03:05 5,2 C 4,8 C 83 % 1005,8 hPa 0,0 l/m 4,3 km/h (1 Bft) W-SW 247 2,6 C 4,8 km/h (1 Bft)
26.03.2015 03:10 5,1 C 4,8 C 83 % 1005,8 hPa 0,0 l/m 4,3 km/h (1 Bft) W 270 2,5 C 4,8 km/h (1 Bft)
26.03.2015 03:15 5,0 C 4,6 C 83 % 1005,8 hPa 0,0 l/m 4,3 km/h (1 Bft) S 180 2,4 C 3,7 km/h (1 Bft)
26.03.2015 03:20 4,9 C 4,6 C 80 % 1005,8 hPa 0,0 l/m 4,3 km/h (1 Bft) W-SW 247 1,7 C 4,3 km/h (1 Bft)
26.03.2015 03:25 4,9 C 4,5 C 84 % 1005,8 hPa 0,0 l/m 4,3 km/h (1 Bft) W-SW 247 2,4 C 6,6 km/h (2 Bft)
26.03.2015 03:30 4,8 C 4,4 C 84 % 1005,8 hPa 0,0 l/m 4,2 km/h (1 Bft) W-SW 247 2,3 C 4,2 km/h (1 Bft)
26.03.2015 03:35 4,7 C 4,3 C 84 % 1005,8 hPa 0,0 l/m 4,7 km/h (1 Bft) W 270 2,2 C 5,6 km/h (1 Bft)
26.03.2015 03:40 4,7 C 4,2 C 84 % 1005,8 hPa 0,0 l/m 5,3 km/h (1 Bft) NO 45 2,2 C 7,1 km/h (2 Bft)
26.03.2015 03:45 4,6 C 4,0 C 85 % 1005,9 hPa 0,0 l/m 5,6 km/h (1 Bft) NW 315 2,3 C 2,9 km/h (1 Bft)
26.03.2015 03:50 4,6 C 3,9 C 85 % 1005,9 hPa 0,0 l/m 5,8 km/h (2 Bft) W 270 2,3 C 11,3 km/h (2 Bft)
26.03.2015 03:55 4,5 C 3,9 C 85 % 1005,9 hPa 0,0 l/m 5,8 km/h (2 Bft) S-SO 157 2,2 C 6,6 km/h (2 Bft)
26.03.2015 04:00 4,5 C 3,9 C 85 % 1005,9 hPa 0,0 l/m 5,6 km/h (1 Bft) W-NW 292 2,2 C 2,1 km/h (1 Bft)
26.03.2015 04:05 4,4 C 3,9 C 85 % 1006,2 hPa 0,0 l/m 5,0 km/h (1 Bft) W 270 2,1 C 6,8 km/h (2 Bft)
26.03.2015 04:10 4,3 C 3,8 C 85 % 1006,2 hPa 0,0 l/m 5,0 km/h (1 Bft) W-SW 247 2,0 C 3,9 km/h (1 Bft)
26.03.2015 04:15 4,2 C 3,7 C 85 % 1006,2 hPa 0,0 l/m 5,0 km/h (1 Bft) W 270 1,9 C 4,8 km/h (1 Bft)
26.03.2015 04:20 4,2 C 3,6 C 85 % 1006,2 hPa 0,0 l/m 5,3 km/h (1 Bft) W 270 1,9 C 7,1 km/h (2 Bft)
26.03.2015 04:25 4,1 C 3,6 C 85 % 1006,4 hPa 0,0 l/m 5,0 km/h (1 Bft) W-NW 292 1,8 C 8,7 km/h (2 Bft)
26.03.2015 04:30 4,1 C 3,4 C 85 % 1006,4 hPa 0,0 l/m 6,3 km/h (2 Bft) W-SW 247 1,8 C 5,6 km/h (1 Bft)
26.03.2015 04:35 4,1 C 3,4 C 85 % 1006,4 hPa 0,0 l/m 6,3 km/h (2 Bft) W-SW 247 1,8 C 7,2 km/h (2 Bft)
26.03.2015 04:40 4,0 C 3,4 C 85 % 1006,4 hPa 0,0 l/m 5,1 km/h (1 Bft) W-SW 247 1,7 C 4,7 km/h (1 Bft)
26.03.2015 04:45 4,0 C 3,6 C 85 % 1006,7 hPa 0,0 l/m 4,3 km/h (1 Bft) W-SW 247 1,7 C 7,4 km/h (2 Bft)
26.03.2015 04:50 4,0 C 3,5 C 85 % 1006,7 hPa 0,0 l/m 4,5 km/h (1 Bft) W-SW 247 1,7 C 4,0 km/h (1 Bft)
26.03.2015 04:55 3,9 C 3,3 C 85 % 1006,7 hPa 0,0 l/m 5,5 km/h (1 Bft) W-NW 292 1,6 C 9,2 km/h (2 Bft)
26.03.2015 05:00 3,9 C 3,3 C 85 % 1006,7 hPa 0,0 l/m 5,3 km/h (1 Bft) W 270 1,6 C 7,6 km/h (2 Bft)
26.03.2015 05:05 3,8 C 3,2 C 82 % 1006,9 hPa 0,0 l/m 5,5 km/h (1 Bft) S-SW 202 1,0 C 3,1 km/h (1 Bft)
26.03.2015 05:10 3,8 C 3,2 C 86 % 1006,9 hPa 0,0 l/m 5,1 km/h (1 Bft) W-SW 247 1,7 C 3,9 km/h (1 Bft)
26.03.2015 05:15 3,8 C 3,2 C 86 % 1006,9 hPa 0,0 l/m 4,8 km/h (1 Bft) W-SW 247 1,7 C 3,5 km/h (1 Bft)
26.03.2015 05:20 3,7 C 3,3 C 82 % 1006,9 hPa 0,0 l/m 4,3 km/h (1 Bft) SW 225 0,9 C 3,2 km/h (1 Bft)
26.03.2015 05:25 3,7 C 3,4 C 85 % 1007,2 hPa 0,0 l/m 3,5 km/h (1 Bft) W 270 1,4 C 9,7 km/h (2 Bft)
26.03.2015 05:30 3,7 C 3,2 C 85 % 1007,2 hPa 0,0 l/m 4,2 km/h (1 Bft) W 270 1,4 C 4,2 km/h (1 Bft)
26.03.2015 05:35 3,6 C 3,1 C 82 % 1007,2 hPa 0,0 l/m 5,3 km/h (1 Bft) NW 315 0,8 C 6,3 km/h (2 Bft)
26.03.2015 05:40 3,6 C 3,2 C 82 % 1007,2 hPa 0,0 l/m 4,3 km/h (1 Bft) W-NW 292 0,8 C 5,1 km/h (1 Bft)
26.03.2015 05:45 3,6 C 3,3 C 85 % 1007,6 hPa 0,0 l/m 3,4 km/h (1 Bft) W 270 1,3 C 3,2 km/h (1 Bft)
26.03.2015 05:50 3,6 C 3,3 C 85 % 1007,6 hPa 0,0 l/m 3,2 km/h (1 Bft) N-NO 22 1,3 C 11,4 km/h (2 Bft)
26.03.2015 05:55 3,6 C 3,0 C 85 % 1007,6 hPa 0,0 l/m 4,8 km/h (1 Bft) W 270 1,3 C 9,5 km/h (2 Bft)
26.03.2015 06:00 3,6 C 2,9 C 85 % 1007,6 hPa 0,0 l/m 6,1 km/h (2 Bft) W 270 1,3 C 7,2 km/h (2 Bft)
26.03.2015 06:05 3,6 C 2,9 C 85 % 1007,8 hPa 0,0 l/m 6,0 km/h (2 Bft) W-NW 292 1,3 C 6,4 km/h (2 Bft)
26.03.2015 06:10 3,5 C 2,9 C 85 % 1007,8 hPa 0,0 l/m 5,3 km/h (1 Bft) W 270 1,2 C 6,0 km/h (2 Bft)
26.03.2015 06:15 3,5 C 3,0 C 85 % 1007,8 hPa 0,0 l/m 4,8 km/h (1 Bft) W-SW 247 1,2 C 6,6 km/h (2 Bft)
26.03.2015 06:20 3,5 C 2,9 C 85 % 1007,8 hPa 0,0 l/m 5,0 km/h (1 Bft) S 180 1,2 C 9,3 km/h (2 Bft)
26.03.2015 06:25 3,5 C 2,9 C 85 % 1007,9 hPa 0,0 l/m 5,0 km/h (1 Bft) W-SW 247 1,2 C 5,1 km/h (1 Bft)
26.03.2015 06:30 3,5 C 3,0 C 85 % 1007,9 hPa 0,0 l/m 4,3 km/h (1 Bft) W-SW 247 1,2 C 3,7 km/h (1 Bft)
26.03.2015 06:35 3,4 C 3,1 C 85 % 1007,9 hPa 0,0 l/m 3,5 km/h (1 Bft) SW 225 1,1 C 7,1 km/h (2 Bft)
26.03.2015 06:40 3,4 C 3,0 C 85 % 1007,9 hPa 0,0 l/m 3,9 km/h (1 Bft) W 270 1,1 C 5,5 km/h (1 Bft)
26.03.2015 06:45 3,4 C 3,0 C 85 % 1008,3 hPa 0,0 l/m 4,3 km/h (1 Bft) W-SW 247 1,1 C 4,8 km/h (1 Bft)
26.03.2015 06:50 3,4 C 3,0 C 85 % 1008,3 hPa 0,0 l/m 4,5 km/h (1 Bft) W-SW 247 1,1 C 6,3 km/h (2 Bft)
26.03.2015 06:55 3,4 C 3,0 C 85 % 1008,3 hPa 0,0 l/m 4,7 km/h (1 Bft) W-SW 247 1,1 C 6,8 km/h (2 Bft)
26.03.2015 07:00 3,4 C 2,9 C 85 % 1008,3 hPa 0,0 l/m 4,7 km/h (1 Bft) W-SW 247 1,1 C 3,7 km/h (1 Bft)
26.03.2015 07:05 3,4 C 3,0 C 85 % 1008,6 hPa 0,0 l/m 4,0 km/h (1 Bft) S 180 1,1 C 4,5 km/h (1 Bft)
26.03.2015 07:10 3,4 C 3,0 C 85 % 1008,6 hPa 0,0 l/m 3,7 km/h (1 Bft) W 270 1,1 C 3,9 km/h (1 Bft)
26.03.2015 07:15 3,3 C 2,9 C 85 % 1008,6 hPa 0,0 l/m 3,9 km/h (1 Bft) W-SW 247 1,0 C 3,4 km/h (1 Bft)
26.03.2015 07:20 3,3 C 2,9 C 85 % 1008,6 hPa 0,0 l/m 3,9 km/h (1 Bft) W-SW 247 1,0 C 6,4 km/h (2 Bft)
26.03.2015 07:25 3,3 C 2,9 C 85 % 1008,8 hPa 0,0 l/m 3,5 km/h (1 Bft) W-SW 247 1,0 C 8,5 km/h (2 Bft)
26.03.2015 07:30 3,3 C 2,9 C 85 % 1008,8 hPa 0,0 l/m 3,9 km/h (1 Bft) W-SW 247 1,0 C 6,6 km/h (2 Bft)
26.03.2015 07:35 3,3 C 2,8 C 85 % 1008,8 hPa 0,0 l/m 4,0 km/h (1 Bft) W 270 1,0 C 3,9 km/h (1 Bft)
26.03.2015 07:40 3,3 C 3,0 C 82 % 1008,8 hPa 0,0 l/m 3,9 km/h (1 Bft) W-SW 247 0,5 C 3,5 km/h (1 Bft)
26.03.2015 07:45 3,3 C 3,0 C 82 % 1008,8 hPa 0,0 l/m 3,9 km/h (1 Bft) W-SW 247 0,5 C 2,7 km/h (1 Bft)
26.03.2015 07:50 3,3 C 3,0 C 82 % 1008,8 hPa 0,0 l/m 4,2 km/h (1 Bft) W 270 0,5 C 5,5 km/h (1 Bft)
26.03.2015 07:55 3,3 C 3,0 C 82 % 1008,8 hPa 0,0 l/m 4,0 km/h (1 Bft) W 270 0,5 C 2,7 km/h (1 Bft)
26.03.2015 08:00 3,3 C 3,0 C 82 % 1008,8 hPa 0,0 l/m 4,0 km/h (1 Bft) W-SW 247 0,5 C 3,9 km/h (1 Bft)
26.03.2015 08:05 3,2 C 3,0 C 82 % 1009,1 hPa 0,0 l/m 4,3 km/h (1 Bft) SW 225 0,4 C 5,5 km/h (1 Bft)
26.03.2015 08:10 3,2 C 2,9 C 82 % 1009,1 hPa 0,0 l/m 5,3 km/h (1 Bft) W-SW 247 0,4 C 4,7 km/h (1 Bft)
26.03.2015 08:15 3,2 C 2,9 C 82 % 1009,1 hPa 0,0 l/m 5,0 km/h (1 Bft) W-SW 247 0,4 C 3,2 km/h (1 Bft)
26.03.2015 08:20 3,3 C 3,1 C 82 % 1009,1 hPa 0,0 l/m 4,5 km/h (1 Bft) W-SW 247 0,5 C 10,1 km/h (2 Bft)
26.03.2015 08:25 3,4 C 3,3 C 82 % 1009,1 hPa 0,0 l/m 4,7 km/h (1 Bft) SW 225 0,6 C 5,3 km/h (1 Bft)
26.03.2015 08:30 3,5 C 3,6 C 82 % 1009,1 hPa 0,0 l/m 4,3 km/h (1 Bft) W 270 0,7 C 5,6 km/h (1 Bft)
26.03.2015 08:35 3,5 C 3,7 C 82 % 1009,1 hPa 0,0 l/m 4,3 km/h (1 Bft) W 270 0,7 C 4,2 km/h (1 Bft)
26.03.2015 08:40 3,6 C 3,7 C 82 % 1009,1 hPa 0,0 l/m 4,7 km/h (1 Bft) W 270 0,8 C 9,8 km/h (2 Bft)
26.03.2015 08:45 3,5 C 3,4 C 81 % 1009,3 hPa 0,0 l/m 6,1 km/h (2 Bft) NW 315 0,6 C 15,6 km/h (3 Bft)
26.03.2015 08:50 3,5 C 3,2 C 81 % 1009,3 hPa 0,0 l/m 7,2 km/h (2 Bft) W-NW 292 0,6 C 9,0 km/h (2 Bft)
26.03.2015 08:55 3,5 C 3,2 C 81 % 1009,3 hPa 0,0 l/m 6,9 km/h (2 Bft) W-SW 247 0,6 C 8,2 km/h (2 Bft)
26.03.2015 09:00 3,5 C 3,1 C 81 % 1009,3 hPa 0,0 l/m 7,2 km/h (2 Bft) W-SW 247 0,6 C 11,7 km/h (2 Bft)
26.03.2015 09:05 3,5 C 3,2 C 81 % 1009,9 hPa 0,0 l/m 6,6 km/h (2 Bft) NW 315 0,6 C 8,9 km/h (2 Bft)
26.03.2015 09:10 3,5 C 3,3 C 81 % 1009,9 hPa 0,0 l/m 5,6 km/h (1 Bft) W 270 0,6 C 6,4 km/h (2 Bft)
26.03.2015 09:15 3,5 C 3,4 C 81 % 1009,9 hPa 0,0 l/m 5,3 km/h (1 Bft) W 270 0,6 C 6,9 km/h (2 Bft)
26.03.2015 09:20 3,5 C 3,6 C 81 % 1009,9 hPa 0,0 l/m 4,7 km/h (1 Bft) W 270 0,6 C 5,8 km/h (2 Bft)
26.03.2015 09:25 3,6 C 3,9 C 81 % 1009,6 hPa 0,0 l/m 4,2 km/h (1 Bft) S 180 0,7 C 3,7 km/h (1 Bft)
26.03.2015 09:30 3,6 C 4,0 C 81 % 1009,6 hPa 0,0 l/m 3,9 km/h (1 Bft) SW 225 0,7 C 6,1 km/h (2 Bft)
26.03.2015 09:35 3,6 C 3,9 C 81 % 1009,6 hPa 0,0 l/m 4,2 km/h (1 Bft) W 270 0,7 C 2,3 km/h (1 Bft)
26.03.2015 09:40 3,7 C 4,0 C 81 % 1009,6 hPa 0,0 l/m 4,5 km/h (1 Bft) W 270 0,7 C 8,2 km/h (2 Bft)
26.03.2015 09:45 3,7 C 3,9 C 81 % 1009,6 hPa 0,0 l/m 4,8 km/h (1 Bft) W-SW 247 0,7 C 5,8 km/h (2 Bft)
26.03.2015 09:50 3,8 C 4,0 C 81 % 1009,6 hPa 0,0 l/m 5,0 km/h (1 Bft) W-SW 247 0,8 C 5,1 km/h (1 Bft)
26.03.2015 09:55 3,8 C 4,1 C 80 % 1009,6 hPa 0,0 l/m 4,2 km/h (1 Bft) SW 225 0,7 C 5,6 km/h (1 Bft)
26.03.2015 10:00 3,8 C 4,2 C 80 % 1009,6 hPa 0,0 l/m 3,9 km/h (1 Bft) SW 225 0,7 C 1,9 km/h (1 Bft)
26.03.2015 10:05 3,8 C 4,3 C 80 % 1009,9 hPa 0,0 l/m 3,2 km/h (1 Bft) SW 225 0,7 C 4,3 km/h (1 Bft)
26.03.2015 10:10 3,8 C 4,2 C 80 % 1009,9 hPa 0,0 l/m 3,7 km/h (1 Bft) W 270 0,7 C 4,7 km/h (1 Bft)
26.03.2015 10:15 4,0 C 4,1 C 80 % 1009,9 hPa 0,0 l/m 4,8 km/h (1 Bft) W-NW 292 0,9 C 8,7 km/h (2 Bft)
26.03.2015 10:20 3,8 C 4,0 C 80 % 1009,9 hPa 0,0 l/m 5,0 km/h (1 Bft) W-NW 292 0,7 C 8,0 km/h (2 Bft)
26.03.2015 10:25 4,0 C 4,1 C 79 % 1009,9 hPa 0,0 l/m 5,3 km/h (1 Bft) W 270 0,7 C 4,8 km/h (1 Bft)
26.03.2015 10:30 4,1 C 4,4 C 79 % 1009,9 hPa 0,0 l/m 4,5 km/h (1 Bft) W-NW 292 0,8 C 3,7 km/h (1 Bft)
26.03.2015 10:35 4,3 C 4,9 C 79 % 1009,9 hPa 0,0 l/m 4,2 km/h (1 Bft) W 270 1,0 C 8,7 km/h (2 Bft)
26.03.2015 10:40 4,3 C 4,9 C 79 % 1009,9 hPa 0,0 l/m 4,8 km/h (1 Bft) W 270 1,0 C 9,0 km/h (2 Bft)
26.03.2015 10:45 4,4 C 4,9 C 79 % 1010,2 hPa 0,0 l/m 5,5 km/h (1 Bft) NW 315 1,1 C 5,8 km/h (2 Bft)
26.03.2015 10:50 4,4 C 5,0 C 79 % 1010,2 hPa 0,0 l/m 5,3 km/h (1 Bft) NW 315 1,1 C 5,8 km/h (2 Bft)
26.03.2015 10:55 4,5 C 5,2 C 79 % 1010,2 hPa 0,0 l/m 5,0 km/h (1 Bft) W-NW 292 1,2 C 4,8 km/h (1 Bft)
26.03.2015 11:00 4,7 C 5,6 C 79 % 1010,2 hPa 0,0 l/m 4,3 km/h (1 Bft) NW 315 1,4 C 3,1 km/h (1 Bft)
26.03.2015 11:05 4,8 C 6,2 C 79 % 1009,9 hPa 0,0 l/m 3,4 km/h (1 Bft) NW 315 1,5 C 4,8 km/h (1 Bft)
26.03.2015 11:10 4,8 C 6,1 C 79 % 1009,9 hPa 0,0 l/m 3,7 km/h (1 Bft) N-NW 337 1,5 C 6,1 km/h (2 Bft)
26.03.2015 11:15 4,8 C 5,7 C 79 % 1009,9 hPa 0,0 l/m 4,2 km/h (1 Bft) NW 315 1,5 C 2,6 km/h (1 Bft)
26.03.2015 11:20 4,8 C 5,6 C 79 % 1009,9 hPa 0,0 l/m 4,3 km/h (1 Bft) W 270 1,5 C 9,7 km/h (2 Bft)
26.03.2015 11:25 4,7 C 5,2 C 78 % 1009,8 hPa 0,0 l/m 5,0 km/h (1 Bft) W-NW 292 1,2 C 7,9 km/h (2 Bft)
26.03.2015 11:30 4,8 C 5,1 C 78 % 1009,8 hPa 0,0 l/m 6,0 km/h (2 Bft) W-SW 247 1,3 C 9,8 km/h (2 Bft)
26.03.2015 11:35 4,8 C 5,0 C 78 % 1009,8 hPa 0,0 l/m 6,8 km/h (2 Bft) W 270 1,3 C 9,7 km/h (2 Bft)
26.03.2015 11:40 4,9 C 5,2 C 78 % 1009,8 hPa 0,0 l/m 7,4 km/h (2 Bft) W-NW 292 1,4 C 10,6 km/h (2 Bft)
26.03.2015 11:45 5,0 C 5,6 C 77 % 1009,8 hPa 0,0 l/m 6,3 km/h (2 Bft) NW 315 1,3 C 6,0 km/h (2 Bft)
26.03.2015 11:50 5,2 C 6,0 C 77 % 1009,8 hPa 0,0 l/m 5,1 km/h (1 Bft) W-NW 292 1,5 C 5,3 km/h (1 Bft)
26.03.2015 11:55 5,3 C 6,3 C 77 % 1009,8 hPa 0,0 l/m 4,7 km/h (1 Bft) W 270 1,6 C 7,1 km/h (2 Bft)
26.03.2015 12:00 5,4 C 6,3 C 76 % 1009,8 hPa 0,0 l/m 5,1 km/h (1 Bft) W 270 1,5 C 6,3 km/h (2 Bft)
26.03.2015 12:05 5,5 C 6,3 C 76 % 1009,8 hPa 0,0 l/m 5,5 km/h (1 Bft) W-SW 247 1,6 C 6,6 km/h (2 Bft)
26.03.2015 12:10 5,6 C 6,3 C 76 % 1009,8 hPa 0,0 l/m 5,3 km/h (1 Bft) W-NW 292 1,7 C 6,8 km/h (2 Bft)
26.03.2015 12:15 5,6 C 6,1 C 76 % 1009,8 hPa 0,0 l/m 6,0 km/h (2 Bft) W-NW 292 1,7 C 10,9 km/h (2 Bft)
26.03.2015 12:20 5,5 C 5,9 C 75 % 1009,8 hPa 0,0 l/m 6,8 km/h (2 Bft) W 270 1,4 C 9,0 km/h (2 Bft)
26.03.2015 12:25 5,6 C 6,1 C 75 % 1009,9 hPa 0,0 l/m 6,0 km/h (2 Bft) NW 315 1,5 C 4,5 km/h (1 Bft)
26.03.2015 12:30 5,7 C 6,4 C 75 % 1009,9 hPa 0,0 l/m 5,0 km/h (1 Bft) W 270 1,6 C 10,6 km/h (2 Bft)
26.03.2015 12:35 5,7 C 6,4 C 75 % 1009,9 hPa 0,0 l/m 4,7 km/h (1 Bft) NW 315 1,6 C 9,0 km/h (2 Bft)
26.03.2015 12:40 5,8 C 6,4 C 75 % 1009,9 hPa 0,0 l/m 5,5 km/h (1 Bft) W-SW 247 1,7 C 3,5 km/h (1 Bft)
26.03.2015 12:45 5,9 C 6,5 C 75 % 1009,6 hPa 0,0 l/m 4,7 km/h (1 Bft) W 270 1,8 C 5,6 km/h (1 Bft)
26.03.2015 12:50 5,9 C 6,9 C 74 % 1009,6 hPa 0,0 l/m 4,2 km/h (1 Bft) W-NW 292 1,6 C 7,9 km/h (2 Bft)
26.03.2015 12:55 5,8 C 6,3 C 74 % 1009,6 hPa 0,0 l/m 5,6 km/h (1 Bft) W-NW 292 1,5 C 4,2 km/h (1 Bft)
26.03.2015 13:00 5,8 C 6,2 C 74 % 1009,6 hPa 0,0 l/m 6,6 km/h (2 Bft) NW 315 1,5 C 9,5 km/h (2 Bft)
26.03.2015 13:05 5,8 C 6,0 C 74 % 1009,6 hPa 0,0 l/m 6,9 km/h (2 Bft) NW 315 1,5 C 9,8 km/h (2 Bft)
26.03.2015 13:10 5,8 C 5,8 C 74 % 1009,6 hPa 0,0 l/m 7,4 km/h (2 Bft) NW 315 1,5 C 8,7 km/h (2 Bft)
26.03.2015 13:15 5,7 C 5,7 C 74 % 1009,6 hPa 0,0 l/m 6,6 km/h (2 Bft) W-SW 247 1,4 C 4,5 km/h (1 Bft)
26.03.2015 13:20 5,7 C 5,8 C 74 % 1009,6 hPa 0,0 l/m 6,0 km/h (2 Bft) W-NW 292 1,4 C 9,5 km/h (2 Bft)
26.03.2015 13:25 5,7 C 6,1 C 74 % 1009,5 hPa 0,0 l/m 4,7 km/h (1 Bft) NW 315 1,4 C 4,5 km/h (1 Bft)
26.03.2015 13:30 5,7 C 5,8 C 74 % 1009,5 hPa 0,0 l/m 5,8 km/h (2 Bft) NW 315 1,4 C 9,7 km/h (2 Bft)
26.03.2015 13:35 5,6 C 5,6 C 74 % 1009,5 hPa 0,0 l/m 6,6 km/h (2 Bft) W 270 1,3 C 3,9 km/h (1 Bft)
26.03.2015 13:40 5,5 C 5,7 C 74 % 1009,5 hPa 0,0 l/m 6,0 km/h (2 Bft) W 270 1,2 C 9,2 km/h (2 Bft)
26.03.2015 13:45 5,5 C 5,6 C 74 % 1009,5 hPa 0,0 l/m 5,5 km/h (1 Bft) W 270 1,2 C 7,7 km/h (2 Bft)
26.03.2015 13:50 5,4 C 5,5 C 74 % 1009,5 hPa 0,0 l/m 5,6 km/h (1 Bft) W 270 1,1 C 4,8 km/h (1 Bft)
26.03.2015 13:55 5,4 C 5,9 C 74 % 1009,5 hPa 0,0 l/m 3,7 km/h (1 Bft) W-NW 292 1,1 C 4,5 km/h (1 Bft)
26.03.2015 14:00 5,5 C 6,1 C 74 % 1009,5 hPa 0,0 l/m 3,2 km/h (1 Bft) NW 315 1,2 C 6,3 km/h (2 Bft)
26.03.2015 14:05 5,4 C 5,7 C 74 % 1009,4 hPa 0,0 l/m 4,3 km/h (1 Bft) W-SW 247 1,1 C 3,7 km/h (1 Bft)
26.03.2015 14:10 5,5 C 5,8 C 74 % 1009,4 hPa 0,0 l/m 4,5 km/h (1 Bft) W 270 1,2 C 6,9 km/h (2 Bft)
26.03.2015 14:15 5,4 C 5,8 C 74 % 1009,4 hPa 0,0 l/m 4,2 km/h (1 Bft) W 270 1,1 C 2,4 km/h (1 Bft)
26.03.2015 14:20 5,5 C 5,9 C 74 % 1009,4 hPa 0,0 l/m 3,9 km/h (1 Bft) W-SW 247 1,2 C 2,7 km/h (1 Bft)
26.03.2015 14:25 5,5 C 5,9 C 74 % 1009,5 hPa 0,0 l/m 3,9 km/h (1 Bft) W 270 1,2 C 6,1 km/h (2 Bft)
26.03.2015 14:30 5,4 C 5,6 C 74 % 1009,5 hPa 0,0 l/m 4,8 km/h (1 Bft) NW 315 1,1 C 6,6 km/h (2 Bft)
26.03.2015 14:35 5,5 C 5,7 C 74 % 1009,5 hPa 0,0 l/m 4,7 km/h (1 Bft) NW 315 1,2 C 4,3 km/h (1 Bft)
26.03.2015 14:40 5,5 C 6,0 C 74 % 1009,5 hPa 0,0 l/m 3,5 km/h (1 Bft) W-NW 292 1,2 C 6,0 km/h (2 Bft)
26.03.2015 14:45 5,6 C 6,3 C 74 % 1009,4 hPa 0,0 l/m 3,2 km/h (1 Bft) W-NW 292 1,3 C 1,6 km/h (1 Bft)
26.03.2015 14:50 5,6 C 6,4 C 74 % 1009,4 hPa 0,0 l/m 3,2 km/h (1 Bft) W-SW 247 1,3 C 2,1 km/h (1 Bft)
26.03.2015 14:55 5,6 C 6,2 C 74 % 1009,4 hPa 0,0 l/m 3,5 km/h (1 Bft) NW 315 1,3 C 6,9 km/h (2 Bft)
26.03.2015 15:00 5,5 C 5,8 C 74 % 1009,4 hPa 0,0 l/m 4,0 km/h (1 Bft) NW 315 1,2 C 5,0 km/h (1 Bft)
26.03.2015 15:05 5,5 C 5,6 C 74 % 1009,5 hPa 0,0 l/m 4,8 km/h (1 Bft) NW 315 1,2 C 6,8 km/h (2 Bft)
26.03.2015 15:10 5,4 C 5,3 C 74 % 1009,5 hPa 0,0 l/m 5,5 km/h (1 Bft) W-NW 292 1,1 C 9,7 km/h (2 Bft)
26.03.2015 15:15 5,4 C 5,2 C 74 % 1009,5 hPa 0,0 l/m 5,5 km/h (1 Bft) W-NW 292 1,1 C 4,5 km/h (1 Bft)
26.03.2015 15:20 5,3 C 5,1 C 74 % 1009,5 hPa 0,0 l/m 5,1 km/h (1 Bft) W-NW 292 1,0 C 6,8 km/h (2 Bft)
26.03.2015 15:25 5,2 C 5,0 C 74 % 1009,6 hPa 0,0 l/m 5,3 km/h (1 Bft) W-NW 292 1,0 C 9,3 km/h (2 Bft)
26.03.2015 15:30 5,0 C 4,8 C 74 % 1009,6 hPa 0,0 l/m 5,8 km/h (2 Bft) W-NW 292 0,8 C 4,2 km/h (1 Bft)
26.03.2015 15:35 4,9 C 4,7 C 75 % 1009,6 hPa 0,0 l/m 5,8 km/h (2 Bft) W-SW 247 0,8 C 8,4 km/h (2 Bft)
26.03.2015 15:40 4,9 C 4,6 C 75 % 1009,6 hPa 0,0 l/m 5,6 km/h (1 Bft) W 270 0,8 C 3,2 km/h (1 Bft)
26.03.2015 15:45 4,9 C 4,6 C 75 % 1009,7 hPa 0,0 l/m 5,5 km/h (1 Bft) NW 315 0,8 C 4,2 km/h (1 Bft)
26.03.2015 15:50 4,9 C 4,7 C 75 % 1009,7 hPa 0,0 l/m 4,8 km/h (1 Bft) W 270 0,8 C 7,6 km/h (2 Bft)
26.03.2015 15:55 4,7 C 4,7 C 75 % 1009,7 hPa 0,0 l/m 4,3 km/h (1 Bft) W-SW 247 0,7 C 5,8 km/h (2 Bft)
26.03.2015 16:00 4,7 C 4,5 C 75 % 1009,7 hPa 0,0 l/m 4,7 km/h (1 Bft) W 270 0,7 C 6,4 km/h (2 Bft)
26.03.2015 16:05 4,6 C 4,3 C 75 % 1009,8 hPa 0,0 l/m 5,3 km/h (1 Bft) W-SW 247 0,6 C 6,8 km/h (2 Bft)
26.03.2015 16:10 4,5 C 4,3 C 75 % 1009,8 hPa 0,0 l/m 4,8 km/h (1 Bft) W-NW 292 0,5 C 3,1 km/h (1 Bft)
26.03.2015 16:15 4,4 C 4,3 C 76 % 1009,8 hPa 0,0 l/m 4,5 km/h (1 Bft) W 270 0,5 C 5,8 km/h (2 Bft)
26.03.2015 16:20 4,3 C 4,1 C 76 % 1009,8 hPa 0,0 l/m 4,5 km/h (1 Bft) W 270 0,5 C 6,8 km/h (2 Bft)
26.03.2015 16:25 4,3 C 4,1 C 76 % 1009,9 hPa 0,0 l/m 4,0 km/h (1 Bft) W-SW 247 0,5 C 6,6 km/h (2 Bft)
26.03.2015 16:30 4,2 C 3,9 C 76 % 1009,9 hPa 0,0 l/m 4,0 km/h (1 Bft) W-SW 247 0,4 C 3,4 km/h (1 Bft)
26.03.2015 16:35 4,1 C 3,8 C 77 % 1009,9 hPa 0,0 l/m 4,0 km/h (1 Bft) W 270 0,4 C 5,6 km/h (1 Bft)
26.03.2015 16:40 4,1 C 4,0 C 77 % 1009,9 hPa 0,0 l/m 2,9 km/h (1 Bft) W 270 0,4 C 6,1 km/h (2 Bft)
26.03.2015 16:45 4,0 C 3,9 C 78 % 1010,0 hPa 0,0 l/m 2,3 km/h (1 Bft) W-NW 292 0,5 C 2,3 km/h (1 Bft)
26.03.2015 16:50 4,0 C 3,9 C 78 % 1010,0 hPa 0,0 l/m 2,6 km/h (1 Bft) W-SW 247 0,5 C 2,6 km/h (1 Bft)
26.03.2015 16:55 4,0 C 3,9 C 78 % 1010,0 hPa 0,0 l/m 2,6 km/h (1 Bft) W 270 0,5 C 4,3 km/h (1 Bft)
26.03.2015 17:00 4,0 C 3,9 C 78 % 1010,0 hPa 0,0 l/m 1,8 km/h (1 Bft) W-NW 292 0,5 C 0,0 km/h (0 Bft)
26.03.2015 17:05 3,8 C 3,9 C 79 % 1009,9 hPa 0,0 l/m 1,6 km/h (1 Bft) SW 225 0,5 C 2,6 km/h (1 Bft)
26.03.2015 17:10 3,8 C 3,9 C 79 % 1009,9 hPa 0,0 l/m 1,6 km/h (1 Bft) W-NW 292 0,5 C 0,0 km/h (0 Bft)
26.03.2015 17:15 3,8 C 3,9 C 79 % 1009,9 hPa 0,0 l/m 1,4 km/h (1 Bft) SW 225 0,5 C 0,0 km/h (0 Bft)
26.03.2015 17:20 3,8 C 3,9 C 79 % 1009,9 hPa 0,0 l/m 1,1 km/h (1 Bft) W-SW 247 0,5 C 1,8 km/h (1 Bft)
26.03.2015 17:25 3,8 C 3,8 C 79 % 1010,4 hPa 0,0 l/m 0,6 km/h (0 Bft) SW 225 0,5 C 2,1 km/h (1 Bft)
26.03.2015 17:30 3,7 C 3,7 C 79 % 1010,4 hPa 0,0 l/m 0,6 km/h (0 Bft) W-SW 247 0,4 C 3,4 km/h (1 Bft)
26.03.2015 17:35 3,7 C 3,6 C 80 % 1010,4 hPa 0,0 l/m 1,8 km/h (1 Bft) SW 225 0,6 C 4,3 km/h (1 Bft)
26.03.2015 17:40 3,6 C 3,6 C 80 % 1010,4 hPa 0,0 l/m 2,1 km/h (1 Bft) W-SW 247 0,5 C 2,3 km/h (1 Bft)
26.03.2015 17:45 3,6 C 3,6 C 80 % 1010,4 hPa 0,0 l/m 2,3 km/h (1 Bft) W-SW 247 0,5 C 3,1 km/h (1 Bft)
26.03.2015 17:50 3,6 C 3,6 C 80 % 1010,4 hPa 0,0 l/m 2,3 km/h (1 Bft) W-NW 292 0,5 C 2,1 km/h (1 Bft)
26.03.2015 17:55 3,6 C 3,5 C 80 % 1010,4 hPa 0,0 l/m 2,1 km/h (1 Bft) W 270 0,5 C 3,2 km/h (1 Bft)
26.03.2015 18:00 3,6 C 3,5 C 80 % 1010,4 hPa 0,0 l/m 1,6 km/h (1 Bft) W-SW 247 0,5 C 1,9 km/h (1 Bft)
26.03.2015 18:05 3,5 C 3,5 C 81 % 1010,6 hPa 0,0 l/m 1,6 km/h (1 Bft) W-SW 247 0,6 C 2,6 km/h (1 Bft)
26.03.2015 18:10 3,5 C 3,4 C 81 % 1010,6 hPa 0,0 l/m 2,1 km/h (1 Bft) W-SW 247 0,6 C 3,9 km/h (1 Bft)
26.03.2015 18:15 3,5 C 3,4 C 81 % 1010,6 hPa 0,0 l/m 2,3 km/h (1 Bft) W-SW 247 0,6 C 0,0 km/h (0 Bft)
26.03.2015 18:20 3,5 C 3,4 C 81 % 1010,6 hPa 0,0 l/m 1,6 km/h (1 Bft) S 180 0,6 C 1,6 km/h (1 Bft)
26.03.2015 18:25 3,4 C 3,4 C 82 % 1010,7 hPa 0,0 l/m 1,0 km/h (0 Bft) S-SW 202 0,6 C 1,9 km/h (1 Bft)
26.03.2015 18:30 3,4 C 3,3 C 82 % 1010,7 hPa 0,0 l/m 1,1 km/h (1 Bft) W-SW 247 0,6 C 0,0 km/h (0 Bft)
26.03.2015 18:35 3,4 C 3,3 C 82 % 1010,7 hPa 0,0 l/m 1,3 km/h (1 Bft) W 270 0,6 C 1,8 km/h (1 Bft)
26.03.2015 18:40 3,4 C 3,3 C 82 % 1010,7 hPa 0,0 l/m 1,3 km/h (1 Bft) W-SW 247 0,6 C 4,8 km/h (1 Bft)
26.03.2015 18:45 3,4 C 3,1 C 82 % 1010,7 hPa 0,0 l/m 3,4 km/h (1 Bft) NW 315 0,6 C 3,1 km/h (1 Bft)
26.03.2015 18:50 3,4 C 2,9 C 84 % 1010,7 hPa 0,0 l/m 4,0 km/h (1 Bft) NW 315 1,0 C 4,3 km/h (1 Bft)
26.03.2015 18:55 3,4 C 3,1 C 84 % 1010,7 hPa 0,0 l/m 3,2 km/h (1 Bft) W-NW 292 1,0 C 4,3 km/h (1 Bft)
26.03.2015 19:00 3,4 C 3,0 C 84 % 1010,7 hPa 0,0 l/m 3,5 km/h (1 Bft) W-SW 247 1,0 C 1,8 km/h (1 Bft)
26.03.2015 19:05 3,4 C 3,1 C 85 % 1010,8 hPa 0,0 l/m 3,1 km/h (1 Bft) SW 225 1,1 C 3,9 km/h (1 Bft)
26.03.2015 19:10 3,4 C 3,0 C 85 % 1010,8 hPa 0,0 l/m 3,4 km/h (1 Bft) W-SW 247 1,1 C 5,5 km/h (1 Bft)
26.03.2015 19:15 3,4 C 3,1 C 85 % 1010,8 hPa 0,0 l/m 2,9 km/h (1 Bft) W-SW 247 1,1 C 3,1 km/h (1 Bft)
26.03.2015 19:20 3,4 C 3,0 C 85 % 1010,8 hPa 0,0 l/m 3,4 km/h (1 Bft) S 180 1,1 C 2,9 km/h (1 Bft)
26.03.2015 19:25 3,4 C 3,1 C 85 % 1010,9 hPa 0,0 l/m 3,1 km/h (1 Bft) SW 225 1,1 C 3,7 km/h (1 Bft)
26.03.2015 19:30 3,4 C 3,2 C 85 % 1010,9 hPa 0,0 l/m 2,3 km/h (1 Bft) W-SW 247 1,1 C 0,0 km/h (0 Bft)
26.03.2015 19:35 3,4 C 3,2 C 85 % 1010,9 hPa 0,0 l/m 1,8 km/h (1 Bft) W 270 1,1 C 5,8 km/h (2 Bft)
26.03.2015 19:40 3,4 C 3,1 C 85 % 1010,9 hPa 0,0 l/m 1,9 km/h (1 Bft) W-SW 247 1,1 C 7,1 km/h (2 Bft)
26.03.2015 19:45 3,3 C 2,8 C 85 % 1011,2 hPa 0,0 l/m 3,9 km/h (1 Bft) SO 135 1,0 C 6,9 km/h (2 Bft)
26.03.2015 19:50 3,3 C 2,7 C 85 % 1011,2 hPa 0,0 l/m 4,3 km/h (1 Bft) W-SW 247 1,0 C 4,5 km/h (1 Bft)
26.03.2015 19:55 3,2 C 2,8 C 85 % 1011,2 hPa 0,0 l/m 3,1 km/h (1 Bft) W-SW 247 0,9 C 1,6 km/h (1 Bft)
26.03.2015 20:00 3,2 C 2,9 C 85 % 1011,2 hPa 0,0 l/m 2,4 km/h (1 Bft) SW 225 0,9 C 3,9 km/h (1 Bft)
26.03.2015 20:05 3,2 C 2,9 C 84 % 1011,2 hPa 0,0 l/m 2,1 km/h (1 Bft) S-SW 202 0,8 C 2,9 km/h (1 Bft)
26.03.2015 20:10 3,2 C 2,9 C 84 % 1011,2 hPa 0,0 l/m 1,8 km/h (1 Bft) W-SW 247 0,8 C 0,0 km/h (0 Bft)
26.03.2015 20:15 3,1 C 2,8 C 84 % 1011,2 hPa 0,0 l/m 1,4 km/h (1 Bft) W-SW 247 0,7 C 1,8 km/h (1 Bft)
26.03.2015 20:20 3,2 C 2,9 C 85 % 1011,2 hPa 0,0 l/m 1,9 km/h (1 Bft) SW 225 0,9 C 6,3 km/h (2 Bft)
26.03.2015 20:25 3,2 C 2,7 C 85 % 1011,1 hPa 0,0 l/m 3,5 km/h (1 Bft) SW 225 0,9 C 5,6 km/h (1 Bft)
26.03.2015 20:30 3,2 C 2,7 C 84 % 1011,1 hPa 0,0 l/m 3,2 km/h (1 Bft) SW 225 0,8 C 2,9 km/h (1 Bft)
26.03.2015 20:35 3,1 C 2,8 C 84 % 1011,1 hPa 0,0 l/m 2,9 km/h (1 Bft) W-SW 247 0,7 C 0,0 km/h (0 Bft)
26.03.2015 20:40 3,1 C 2,8 C 84 % 1011,1 hPa 0,0 l/m 2,6 km/h (1 Bft) W-SW 247 0,7 C 1,8 km/h (1 Bft)
26.03.2015 20:45 3,0 C 2,7 C 84 % 1010,9 hPa 0,0 l/m 1,6 km/h (1 Bft) SW 225 0,6 C 3,4 km/h (1 Bft)
26.03.2015 20:50 3,1 C 2,8 C 84 % 1010,9 hPa 0,0 l/m 2,1 km/h (1 Bft) W-SW 247 0,7 C 2,3 km/h (1 Bft)
26.03.2015 20:55 3,0 C 2,7 C 84 % 1010,9 hPa 0,0 l/m 2,1 km/h (1 Bft) SO 135 0,6 C 0,0 km/h (0 Bft)
26.03.2015 21:00 3,0 C 2,7 C 84 % 1010,9 hPa 0,0 l/m 1,6 km/h (1 Bft) SW 225 0,6 C 4,8 km/h (1 Bft)
26.03.2015 21:05 3,0 C 2,7 C 84 % 1011,1 hPa 0,0 l/m 1,6 km/h (1 Bft) SW 225 0,6 C 4,8 km/h (1 Bft)
26.03.2015 21:10 3,0 C 2,7 C 84 % 1011,1 hPa 0,0 l/m 1,9 km/h (1 Bft) S 180 0,6 C 4,0 km/h (1 Bft)
26.03.2015 21:15 3,0 C 2,7 C 84 % 1011,1 hPa 0,0 l/m 2,3 km/h (1 Bft) W-SW 247 0,6 C 2,3 km/h (1 Bft)
26.03.2015 21:20 3,0 C 2,7 C 85 % 1011,1 hPa 0,0 l/m 1,6 km/h (1 Bft) SO 135 0,7 C 0,0 km/h (0 Bft)
26.03.2015 21:25 2,9 C 2,7 C 86 % 1010,7 hPa 0,0 l/m 0,3 km/h (0 Bft) O-SO 112 0,8 C 1,9 km/h (1 Bft)
26.03.2015 21:30 2,9 C 2,6 C 87 % 1010,7 hPa 0,0 l/m 0,5 km/h (0 Bft) SW 225 1,0 C 2,1 km/h (1 Bft)
26.03.2015 21:35 2,9 C 2,6 C 87 % 1010,7 hPa 0,0 l/m 0,5 km/h (0 Bft) SW 225 1,0 C 0,0 km/h (0 Bft)
26.03.2015 21:40 2,8 C 2,6 C 86 % 1010,7 hPa 0,0 l/m 0,3 km/h (0 Bft) W-SW 247 0,7 C 0,0 km/h (0 Bft)
26.03.2015 21:45 2,8 C 2,5 C 86 % 1010,8 hPa 0,0 l/m 0,2 km/h (0 Bft) W-SW 247 0,7 C 0,0 km/h (0 Bft)
26.03.2015 21:50 2,8 C 2,5 C 86 % 1010,8 hPa 0,0 l/m 0,0 km/h (0 Bft) W-SW 247 0,7 C 0,0 km/h (0 Bft)
26.03.2015 21:55 2,8 C 2,5 C 86 % 1010,8 hPa 0,0 l/m 0,0 km/h (0 Bft) SW 225 0,7 C 0,0 km/h (0 Bft)
26.03.2015 22:00 2,7 C 2,4 C 86 % 1010,8 hPa 0,0 l/m 0,0 km/h (0 Bft) SW 225 0,6 C 0,0 km/h (0 Bft)
26.03.2015 22:05 2,8 C 2,5 C 86 % 1011,0 hPa 0,0 l/m 0,0 km/h (0 Bft) S 180 0,7 C 2,6 km/h (1 Bft)
26.03.2015 22:10 2,8 C 2,5 C 86 % 1011,0 hPa 0,0 l/m 0,5 km/h (0 Bft) W 270 0,7 C 1,8 km/h (1 Bft)
26.03.2015 22:15 2,7 C 2,5 C 86 % 1011,0 hPa 0,0 l/m 0,8 km/h (0 Bft) SW 225 0,6 C 2,6 km/h (1 Bft)
26.03.2015 22:20 2,8 C 2,5 C 86 % 1011,0 hPa 0,0 l/m 1,0 km/h (0 Bft) SW 225 0,7 C 2,6 km/h (1 Bft)
26.03.2015 22:25 2,9 C 2,6 C 86 % 1011,1 hPa 0,0 l/m 1,4 km/h (1 Bft) W 270 0,8 C 0,0 km/h (0 Bft)
26.03.2015 22:30 3,0 C 2,7 C 86 % 1011,1 hPa 0,0 l/m 1,6 km/h (1 Bft) W-SW 247 0,9 C 4,3 km/h (1 Bft)
26.03.2015 22:35 3,1 C 2,8 C 86 % 1011,1 hPa 0,0 l/m 2,1 km/h (1 Bft) W 270 1,0 C 4,5 km/h (1 Bft)
26.03.2015 22:40 3,2 C 2,9 C 86 % 1011,1 hPa 0,0 l/m 2,4 km/h (1 Bft) SW 225 1,1 C 3,9 km/h (1 Bft)
26.03.2015 22:45 3,2 C 2,9 C 86 % 1011,4 hPa 0,0 l/m 2,6 km/h (1 Bft) W-SW 247 1,1 C 5,3 km/h (1 Bft)
26.03.2015 22:50 3,3 C 2,9 C 86 % 1011,4 hPa 0,0 l/m 3,1 km/h (1 Bft) SW 225 1,2 C 4,7 km/h (1 Bft)
26.03.2015 22:55 3,3 C 2,9 C 85 % 1011,4 hPa 0,0 l/m 3,4 km/h (1 Bft) SW 225 1,0 C 3,7 km/h (1 Bft)
26.03.2015 23:00 3,2 C 2,9 C 85 % 1011,4 hPa 0,0 l/m 3,2 km/h (1 Bft) SW 225 0,9 C 4,8 km/h (1 Bft)
26.03.2015 23:05 3,2 C 2,9 C 85 % 1011,5 hPa 1,4 l/m 3,2 km/h (1 Bft) SW 225 0,9 C 5,0 km/h (1 Bft)
26.03.2015 23:10 3,2 C 2,9 C 85 % 1011,5 hPa 0,0 l/m 3,1 km/h (1 Bft) W-SW 247 0,9 C 2,4 km/h (1 Bft)
26.03.2015 23:15 3,2 C 3,0 C 85 % 1011,5 hPa 0,0 l/m 2,6 km/h (1 Bft) SW 225 0,9 C 3,2 km/h (1 Bft)
26.03.2015 23:20 3,2 C 3,0 C 85 % 1011,5 hPa 0,0 l/m 2,6 km/h (1 Bft) W-SW 247 0,9 C 2,1 km/h (1 Bft)
26.03.2015 23:25 3,3 C 3,1 C 85 % 1011,4 hPa 0,0 l/m 2,7 km/h (1 Bft) W-SW 247 1,0 C 2,7 km/h (1 Bft)
26.03.2015 23:30 3,2 C 3,0 C 85 % 1011,4 hPa 0,0 l/m 2,3 km/h (1 Bft) W-SW 247 0,9 C 3,2 km/h (1 Bft)
26.03.2015 23:35 3,2 C 3,0 C 85 % 1011,4 hPa 0,0 l/m 1,4 km/h (1 Bft) W-SW 247 0,9 C 0,0 km/h (0 Bft)
26.03.2015 23:40 3,2 C 3,0 C 85 % 1011,4 hPa 0,0 l/m 1,6 km/h (1 Bft) W-SW 247 0,9 C 5,3 km/h (1 Bft)
26.03.2015 23:45 3,3 C 3,1 C 85 % 1011,6 hPa 0,0 l/m 2,4 km/h (1 Bft) W-SW 247 1,0 C 3,1 km/h (1 Bft)
26.03.2015 23:50 3,3 C 3,1 C 85 % 1011,6 hPa 0,0 l/m 2,7 km/h (1 Bft) SW 225 1,0 C 0,0 km/h (0 Bft)
26.03.2015 23:55 3,3 C 3,1 C 84 % 1011,6 hPa 0,0 l/m 1,9 km/h (1 Bft) W-SW 247 0,9 C 4,7 km/h (1 Bft)
_ Min-Zeit 22:15 22:00 15:30 00:20 - 22:05 - - 16:30 23:50
Minimum _ 2,7 C 2,4 C 74 % 1004,6 hPa - 0,0 km/h (0 Bft) - - 0,4 C 0,0 km/h (0 Bft)
_ Max-Zeit 00:15 12:50 21:35 23:55 23:05 13:10 - - 01:15 08:45
Maximum _ 6,8 C 6,9 C 87 % 1011,6 hPa 1,4 l/m 7,4 km/h
NW (2 Bft)
- - 3,2 C 15,6 km/h
NW (3 Bft)
Durchschnitt _ 4,3 C 4,2 C 81 % 1008,9 hPa #1,4 l/m 3,9 km/h (1 Bft) W-SW - 1,3 C 5,0 km/h (1 Bft)